Location: Newark
(33.4453°N, 112.0669°W)
Time: 06:26:10
(UTC+00:00)

Vanguard 2 Rocket - Visible Passes

Search period start: 24 February 2020 00:00
Search period end: 05 March 2020 00:00
Orbit: 553 x 3327 km, 32.9° (Epoch: 23 February)

Date Brightness Start Highest point End Pass type
(mag) Time Alt. Az. Time Alt. Az. Time Alt. Az.
24 Feb 9.7 01:27:57 10° SW 01:47:39 58° SSE 02:02:06 11° E visible
24 Feb 8.6 03:46:05 10° WSW 04:05:04 84° S 04:07:54 65° E visible
24 Feb 9.8 06:06:19 10° W 06:13:42 32° W 06:13:42 32° W visible
25 Feb 9.2 02:43:24 10° WSW 03:03:29 78° SSE 03:11:46 33° E visible
25 Feb 8.9 05:03:19 10° W 05:17:35 64° W 05:17:35 64° W visible
25 Feb 10.6 07:23:15 10° W 07:23:23 10° W 07:23:23 10° W visible
26 Feb 9.5 01:41:16 10° WSW 02:01:35 70° SSE 02:15:37 14° E visible
26 Feb 8.6 04:00:16 10° W 04:19:21 88° S 04:21:26 72° E visible
26 Feb 9.9 06:20:34 10° W 06:27:14 29° W 06:27:14 29° W visible
27 Feb 9.1 02:57:25 10° WSW 03:17:41 85° S 03:25:15 38° E visible
27 Feb 9.1 05:17:38 10° W 05:31:03 58° W 05:31:03 58° W visible
28 Feb 9.5 01:55:01 10° WSW 02:15:39 79° SSE 02:29:03 17° E visible
28 Feb 8.6 04:14:34 10° W 04:33:39 88° S 04:34:52 80° ESE visible
28 Feb 10.1 06:34:50 10° WNW 06:40:40 25° W 06:40:40 25° W visible
29 Feb 9.0 03:11:38 10° W 03:31:57 88° S 03:38:39 43° E visible
29 Feb 9.3 05:31:52 10° W 05:44:27 51° W 05:44:27 51° W visible
01 Mar 9.5 02:09:05 10° WSW 02:29:50 86° S 02:42:25 21° E visible
01 Mar 8.7 04:28:51 10° W 04:47:54 83° SSW 04:48:14 83° S visible
01 Mar 10.2 06:49:10 10° WNW 06:54:02 21° W 06:54:02 21° W visible
02 Mar 8.9 03:25:56 10° W 03:46:15 88° S 03:52:00 49° E visible
02 Mar 9.5 05:46:07 10° WNW 05:57:48 44° W 05:57:48 44° W visible
03 Mar 9.4 02:23:19 10° W 02:44:07 89° S 02:55:47 25° E visible
03 Mar 8.8 04:43:06 10° W 05:01:34 74° SSW 05:01:34 74° SSW visible
03 Mar 10.4 07:03:48 10° W 07:07:22 17° W 07:07:22 17° W visible
04 Mar 9.7 01:21:12 10° WSW 01:41:38 86° S 01:58:58 10° E visible
04 Mar 8.9 03:40:13 10° W 04:00:30 83° SSW 04:05:21 55° ESE visible
04 Mar 9.7 06:00:27 10° WNW 06:11:09 37° W 06:11:09 37° W visible
